Weather History for Rock Hill, SC

Change the Weather History Date:

Monday, October 8, 2012

  Actual Average Record
Temperature  
Mean Temperature 50 °F -  
Max Temperature 55 °F 73 °F 91 °F (2007)
Min Temperature 46 °F 52 °F 37 °F (2000)
Degree Days  
Heating Degree Days 14    
Moisture  
Dew Point 47 °F    
Average Humidity 85    
Maximum Humidity 97    
Minimum Humidity 74    
Precipitation  
Precipitation 0.00 in - - ()
Sea Level Pressure  
Sea Level Pressure 30.15 in    
Wind  
Wind Speed 6 mph (NE)    
Max Wind Speed 13 mph    
Max Gust Speed 18 mph    
Visibility 9 miles    
Events      
Averages and records for this station are not official NWS values.
T = Trace of Precipitation, MM = Missing Value Source: NWS Daily Summary

Daily Weather History Graph

Daily Weather History Graph

Search for Another Location

Airport:

Trip Planner

Search our weather history database for the weather conditions in past years. The results will help you decide how hot, cold, wet, or windy it might be!

Date:

Astronomy

Oct. 08, 2012 Rise Set
Actual Time 7:24 AM EDT 6:57 PM EDT
Civil Twilight 6:59 AM EDT 7:23 PM EDT
Nautical Twilight 6:30 AM EDT 7:52 PM EDT
Astronomical Twilight 6:00 AM EDT 8:21 PM EDT
Moon 12:18 AM EDT (10/8) 2:32 PM EDT (10/8)
Length of Visible Light 12h 23m
Length of Day
11h 33m
Waning Gibbous, 46% of the Moon is Illuminated
Oct 8
Waning Gibbous
Oct 15
New
Oct 21
First Quarter
Oct 29
Full
Nov 6
Last Quarter

Hourly Weather History & Observations

Time (EDT) Temp. Dew Point Humidity Pressure Visibility Wind Dir Wind Speed Gust Speed Precip Events Conditions
12:54 AM 55.0 °F 48.9 °F 80% 30.14 in 10.0 mi Variable 3.5 mph - N/A   Overcast
1:54 AM 54.0 °F 46.9 °F 77% 30.14 in 10.0 mi East 5.8 mph - N/A   Overcast
2:54 AM 54.0 °F 48.9 °F 83% 30.13 in 10.0 mi ENE 3.5 mph - N/A   Overcast
3:54 AM 53.1 °F 46.9 °F 80% 30.12 in 10.0 mi ENE 5.8 mph - N/A   Overcast
4:54 AM 53.1 °F 46.9 °F 80% 30.13 in 10.0 mi NNE 6.9 mph - N/A   Overcast
5:54 AM 53.1 °F 46.9 °F 80% 30.14 in 10.0 mi NE 6.9 mph - N/A   Overcast
6:54 AM 52.0 °F 45.0 °F 77% 30.16 in 10.0 mi NNE 9.2 mph - N/A   Overcast
7:54 AM 52.0 °F 45.0 °F 77% 30.16 in 10.0 mi NE 5.8 mph - N/A   Overcast
8:54 AM 52.0 °F 44.1 °F 74% 30.16 in 10.0 mi ENE 9.2 mph - N/A   Overcast
9:54 AM 52.0 °F 45.0 °F 77% 30.18 in 10.0 mi Variable 6.9 mph - N/A   Overcast
10:21 AM 52.0 °F 45.0 °F 77% 30.19 in 10.0 mi ENE 5.8 mph - N/A   Overcast
10:54 AM 53.1 °F 46.0 °F 77% 30.19 in 10.0 mi NE 4.6 mph - N/A   Overcast
11:54 AM 53.1 °F 46.9 °F 80% 30.19 in 10.0 mi NNE 6.9 mph - 0.00 in   Overcast
12:54 PM 53.1 °F 48.9 °F 86% 30.19 in 10.0 mi North 9.2 mph - N/A   Overcast
1:54 PM 53.1 °F 48.0 °F 83% 30.15 in 10.0 mi Variable 6.9 mph - N/A   Overcast
2:16 PM 53.1 °F 48.0 °F 83% 30.14 in 10.0 mi NE 4.6 mph - N/A   Overcast
2:54 PM 53.1 °F 48.9 °F 86% 30.14 in 10.0 mi NNE 10.4 mph - N/A   Overcast
3:38 PM 51.1 °F 48.9 °F 92% 30.14 in 9.0 mi NNE 9.2 mph 18.4 mph N/A   Overcast
3:54 PM 51.1 °F 48.9 °F 92% 30.14 in 8.0 mi NNE 9.2 mph - N/A   Overcast
4:37 PM 51.1 °F 46.9 °F 86% 30.13 in 9.0 mi NNE 9.2 mph - N/A   Overcast
4:54 PM 51.1 °F 48.0 °F 89% 30.14 in 9.0 mi NNE 12.7 mph 17.3 mph N/A   Overcast
5:54 PM 50.0 °F 46.9 °F 89% 30.14 in 9.0 mi NNE 6.9 mph - N/A   Overcast
6:47 PM 48.9 °F 46.9 °F 93% 30.14 in 8.0 mi NE 5.8 mph - N/A   Overcast
6:54 PM 48.9 °F 46.9 °F 93% 30.15 in 8.0 mi Variable 6.9 mph - N/A   Overcast
7:54 PM 48.9 °F 46.9 °F 93% 30.16 in 9.0 mi NNE 10.4 mph - N/A   Overcast
8:54 PM 48.9 °F 46.9 °F 93% 30.16 in 7.0 mi NE 5.8 mph - N/A   Overcast
9:54 PM 48.0 °F 46.9 °F 96% 30.18 in 6.0 mi NNE 8.1 mph - N/A   Overcast
10:54 PM 46.9 °F 46.0 °F 97% 30.18 in 9.0 mi NNE 8.1 mph - N/A   Overcast
11:54 PM 48.0 °F 46.0 °F 93% 30.18 in 10.0 mi NNE 6.9 mph - N/A   Overcast